Location: Crescent
(42.8242°N, 73.7329°W)
Time: 12:28:17
(UTC+00:00)

Vanguard 3 - Pass Details

Date: 17 February 2026
Orbit: 507 x 3205 km, 33.4° (Epoch: 8 March)

Event Time Altitude Azimuth Distance (km) Brightness Sun altitude
Rises 00:47:44 0° 260° (W) 3,627 11.6 -26.2°
Reaches altitude 10° 00:51:17 10° 246° (WSW) 2,307 10.2 -26.8°
Enters shadow 00:54:47 21° 204° (SSW) 1,397 8.5 -27.5°
